When you browse on this site, cookies collect data to enhance your experience and personalize the content and advertising you see.
Visit our Privacy Policy to learn more. By continuing to use the site, you agree to this use of cookies and data.
  • En España
  • Lista de países
  • Para 7 días
  • Temperatura del agua
  • El tiempo en el mapa
  • Informadores
  • user-avatar
    Iniciar sesión

    Tiempo cada hora Santiago del Estero

    Hoy, 20 Octubre, Domingo

    Tiempo Temperatura Precipitaciones Viento Presión Humedad
    00:00 +17°C° 0 mm 2 mps 744 mmHg 61%
    01:00 +17°C° 0 mm 2 mps 744 mmHg 62%
    02:00 +16°C° 0 mm 1 mps 743 mmHg 62%
    03:00 +16°C° 0 mm 1 mps 743 mmHg 64%
    04:00 +15°C° 0 mm 0 mps 743 mmHg 65%
    05:00 +15°C° 0 mm 0 mps 742 mmHg 66%
    06:00 +16°C° 0 mm 0 mps 743 mmHg 62%
    07:00 +19°C° 0 mm 1 mps 743 mmHg 59%
    08:00 +21°C° 0 mm 1 mps 744 mmHg 55%
    09:00 +22°C° 0 mm 1 mps 743 mmHg 51%
    10:00 +24°C° 0 mm 1 mps 743 mmHg 48%
    11:00 +25°C° 0 mm 2 mps 743 mmHg 45%
    12:00 +26°C° 0 mm 3 mps 743 mmHg 43%
    13:00 +27°C° 0 mm 4 mps 743 mmHg 42%
    14:00 +28°C° 0 mm 4 mps 742 mmHg 41%
    15:00 +27°C° 0 mm 5 mps 742 mmHg 45%
    16:00 +26°C° 0 mm 6 mps 742 mmHg 49%
    17:00 +24°C° 0 mm 6 mps 742 mmHg 53%
    18:00 +23°C° 0 mm 6 mps 743 mmHg 59%
    19:00 +21°C° 0 mm 5 mps 744 mmHg 66%
    20:00 +19°C° 0 mm 4 mps 745 mmHg 72%
    21:00 +18°C° 0 mm 4 mps 745 mmHg 77%
    22:00 +17°C° 0 mm 3 mps 746 mmHg 82%
    23:00 +16°C° 0 mm 2 mps 746 mmHg 87%

    Mañana, 21 Octubre, Lunes

    Tiempo Temperatura Precipitaciones Viento Presión Humedad
    00:00 +15°C° 0 mm 1 mps 746 mmHg 89%
    01:00 +15°C° 0 mm 1 mps 745 mmHg 90%
    02:00 +14°C° 0 mm 1 mps 745 mmHg 92%
    03:00 +14°C° 0 mm 1 mps 745 mmHg 93%
    04:00 +13°C° 0 mm 1 mps 745 mmHg 94%
    05:00 +13°C° 0 mm 1 mps 745 mmHg 95%
    06:00 +15°C° 0 mm 1 mps 746 mmHg 86%
    07:00 +18°C° 0 mm 1 mps 746 mmHg 77%
    08:00 +19°C° 0 mm 1 mps 746 mmHg 69%
    09:00 +22°C° 0 mm 1 mps 746 mmHg 60%
    10:00 +25°C° 0 mm 1 mps 746 mmHg 51%
    11:00 +28°C° 0 mm 1 mps 746 mmHg 42%
    12:00 +29°C° 0 mm 1 mps 745 mmHg 35%
    13:00 +30°C° 0 mm 2 mps 744 mmHg 28%
    14:00 +31°C° 0 mm 3 mps 744 mmHg 22%
    15:00 +31°C° 0 mm 3 mps 743 mmHg 22%
    16:00 +32°C° 0 mm 4 mps 743 mmHg 21%
    17:00 +32°C° 0 mm 4 mps 742 mmHg 21%
    18:00 +28°C° 0 mm 4 mps 743 mmHg 25%
    19:00 +26°C° 0 mm 3 mps 743 mmHg 29%
    20:00 +24°C° 0 mm 3 mps 744 mmHg 32%
    21:00 +22°C° 0 mm 3 mps 744 mmHg 39%
    22:00 +21°C° 0 mm 4 mps 744 mmHg 45%
    23:00 +20°C° 0 mm 4 mps 745 mmHg 51%

    Pasado mañana, 22 Octubre, Martes

    Tiempo Temperatura Precipitaciones Viento Presión Humedad
    00:00 +19°C° 0 mm 3 mps 745 mmHg 55%
    01:00 +18°C° 0 mm 3 mps 744 mmHg 59%
    02:00 +17°C° 0 mm 2 mps 744 mmHg 64%
    03:00 +17°C° 0 mm 2 mps 744 mmHg 66%
    04:00 +17°C° 0 mm 2 mps 744 mmHg 68%
    05:00 +16°C° 0 mm 2 mps 744 mmHg 70%
    06:00 +18°C° 0 mm 3 mps 745 mmHg 64%
    07:00 +19°C° 0 mm 4 mps 745 mmHg 59%
    08:00 +21°C° 0 mm 5 mps 745 mmHg 54%
    09:00 +23°C° 0 mm 5 mps 745 mmHg 46%
    10:00 +26°C° 0 mm 5 mps 744 mmHg 37%
    11:00 +29°C° 0 mm 5 mps 744 mmHg 28%
    12:00 +30°C° 0 mm 5 mps 743 mmHg 25%
    13:00 +32°C° 0 mm 5 mps 742 mmHg 22%
    14:00 +33°C° 0 mm 5 mps 741 mmHg 19%
    15:00 +33°C° 0 mm 5 mps 741 mmHg 19%
    16:00 +33°C° 0 mm 5 mps 740 mmHg 18%
    17:00 +33°C° 0 mm 4 mps 740 mmHg 18%
    18:00 +30°C° 0 mm 5 mps 740 mmHg 20%
    19:00 +28°C° 0 mm 5 mps 741 mmHg 23%
    20:00 +25°C° 0 mm 5 mps 741 mmHg 25%
    21:00 +23°C° 0 mm 5 mps 742 mmHg 32%
    22:00 +22°C° 0 mm 4 mps 742 mmHg 38%
    23:00 +21°C° 0 mm 4 mps 742 mmHg 44%

    23 Octubre, Miércoles

    Tiempo Temperatura Precipitaciones Viento Presión Humedad
    00:00 +20°C° 0 mm 3 mps 742 mmHg 47%
    01:00 +19°C° 0 mm 3 mps 742 mmHg 51%
    02:00 +18°C° 0 mm 2 mps 742 mmHg 54%
    03:00 +18°C° 0 mm 2 mps 743 mmHg 57%
    04:00 +17°C° 0 mm 2 mps 743 mmHg 61%
    05:00 +17°C° 0 mm 2 mps 743 mmHg 64%
    06:00 +18°C° 0 mm 2 mps 744 mmHg 60%
    07:00 +20°C° 0 mm 3 mps 744 mmHg 56%
    08:00 +21°C° 0 mm 4 mps 745 mmHg 52%
    09:00 +25°C° 0 mm 4 mps 745 mmHg 46%
    10:00 +27°C° 0 mm 4 mps 744 mmHg 40%
    11:00 +29°C° 0 mm 4 mps 744 mmHg 33%
    12:00 +30°C° 0 mm 4 mps 744 mmHg 30%
    13:00 +31°C° 0 mm 3 mps 743 mmHg 28%
    14:00 +34°C° 0 mm 3 mps 742 mmHg 25%
    15:00 +34°C° 0 mm 3 mps 741 mmHg 25%
    16:00 +34°C° 0 mm 3 mps 741 mmHg 24%
    17:00 +34°C° 0 mm 3 mps 740 mmHg 24%
    18:00 +32°C° 0 mm 4 mps 740 mmHg 27%
    19:00 +29°C° 0 mm 4 mps 741 mmHg 29%
    20:00 +27°C° 0 mm 5 mps 741 mmHg 32%
    21:00 +26°C° 0 mm 4 mps 741 mmHg 35%
    22:00 +25°C° 0 mm 4 mps 741 mmHg 39%
    23:00 +23°C° 0 mm 4 mps 742 mmHg 42%

    24 Octubre, Jueves

    Tiempo Temperatura Precipitaciones Viento Presión Humedad
    00:00 +22°C° 0 mm 3 mps 741 mmHg 44%
    01:00 +21°C° 0 mm 3 mps 741 mmHg 45%
    02:00 +20°C° 0 mm 2 mps 741 mmHg 47%
    03:00 +20°C° 0 mm 2 mps 741 mmHg 49%
    04:00 +19°C° 0 mm 2 mps 741 mmHg 51%
    05:00 +19°C° 0 mm 2 mps 741 mmHg 53%
    06:00 +20°C° 0 mm 3 mps 742 mmHg 49%
    07:00 +22°C° 0 mm 4 mps 742 mmHg 45%
    08:00 +25°C° 0 mm 5 mps 743 mmHg 41%
    09:00 +27°C° 0 mm 5 mps 742 mmHg 36%
    10:00 +29°C° 0 mm 5 mps 742 mmHg 31%
    11:00 +33°C° 0 mm 5 mps 742 mmHg 26%
    12:00 +34°C° 0 mm 5 mps 741 mmHg 25%
    13:00 +35°C° 0 mm 5 mps 740 mmHg 23%
    14:00 +36°C° 0 mm 5 mps 740 mmHg 21%
    15:00 +36°C° 0 mm 4 mps 739 mmHg 21%
    16:00 +36°C° 0 mm 4 mps 738 mmHg 21%
    17:00 +36°C° 0 mm 4 mps 738 mmHg 21%
    18:00 +34°C° 0 mm 4 mps 738 mmHg 25%
    19:00 +32°C° 0 mm 4 mps 739 mmHg 29%
    20:00 +29°C° 0 mm 4 mps 739 mmHg 32%
    21:00 +28°C° 0 mm 5 mps 740 mmHg 34%
    22:00 +27°C° 0 mm 5 mps 740 mmHg 37%
    23:00 +26°C° 0 mm 5 mps 740 mmHg 39%

    25 Octubre, Viernes

    Tiempo Temperatura Precipitaciones Viento Presión Humedad
    00:00 +25°C° 0 mm 4 mps 740 mmHg 41%
    01:00 +23°C° 0 mm 4 mps 739 mmHg 44%
    02:00 +22°C° 0 mm 3 mps 739 mmHg 46%
    03:00 +22°C° 0 mm 3 mps 739 mmHg 48%
    04:00 +21°C° 0 mm 3 mps 739 mmHg 49%
    05:00 +21°C° 0 mm 3 mps 739 mmHg 51%
    06:00 +22°C° 0 mm 4 mps 739 mmHg 47%
    07:00 +24°C° 0 mm 6 mps 739 mmHg 44%
    08:00 +27°C° 0 mm 7 mps 740 mmHg 40%
    09:00 +29°C° 0 mm 7 mps 739 mmHg 35%
    10:00 +33°C° 0 mm 8 mps 739 mmHg 30%
    11:00 +35°C° 0 mm 8 mps 738 mmHg 26%
    12:00 +38°C° 0 mm 8 mps 737 mmHg 24%
    13:00 +39°C° 0 mm 8 mps 736 mmHg 21%
    14:00 +41°C° 0 mm 7 mps 736 mmHg 19%
    15:00 +41°C° 0 mm 7 mps 735 mmHg 19%
    16:00 +40°C° 0 mm 7 mps 735 mmHg 20%
    17:00 +40°C° 0 mm 7 mps 734 mmHg 20%
    18:00 +38°C° 0 mm 6 mps 734 mmHg 23%
    19:00 +35°C° 0 mm 5 mps 735 mmHg 25%
    20:00 +33°C° 0 mm 4 mps 735 mmHg 28%
    21:00 +32°C° 0 mm 5 mps 736 mmHg 33%
    22:00 +30°C° 0 mm 5 mps 736 mmHg 37%
    23:00 +29°C° 0 mm 5 mps 736 mmHg 42%
    Mostrar más